Tracking 30009 objects as of 8-Dec-2024
HD Live streaming from Space Station
objects crossing your sky now

COSMOS 249 DEB

Track COSMOS 249 DEB now!
10-day predictions


NORAD ID: 14410
Int'l Code: 1968-091CL
Perigee: 621.6 km
Apogee: 1,188.7 km
Inclination: 62.2 °
Period: 102.9 minutes
Semi major axis: 7276 km
RCS: 0.0157 m2 (small)
Launch date: October 20, 1968
Source: Commonwealth of Independent States (former USSR) (CIS)
Launch site: TYURATAM MISSILE AND SPACE COMPLEX (TTMTR)

Note: This is SATELLITE DEBRIS
Your satellite tracking list
Your tracking list is empty




NASA's NSSDC Master Catalog

Two Line Element Set (TLE):
1 14410U 68091CL  24342.46000463  .00031529  00000-0  11345-1 0  9997
2 14410  62.2095  91.0879 0389704 135.4550 302.9727 13.98795848 25812
Source of the keplerian elements: AFSPC